Location: Aragüita
(10.0436°N, 67.8028°W)
Time: 13:48:03
(UTC+00:00)

Cosmos 1862 Rocket - Pass Details

Date: 15 January 2026
Orbit: 596 x 627 km, 82.5° (Epoch: 8 February)

Event Time Altitude Azimuth Distance (km) Brightness Sun altitude
Rises 10:16:41 0° 30° (NNE) 2,834 7.1 -9.1°
Reaches altitude 10° 10:20:27 10° 64° (ENE) 1,928 6.8 -8.3°
Maximum altitude 10:21:50 11° 83° (E) 1,837 7.1 -7.9°
Drops below altitude 10° 10:23:12 10° 102° (ESE) 1,927 7.8 -7.6°
Sets 10:26:56 0° 136° (SE) 2,827 8.3 -6.8°
